Vorticity
18 15 15 17 18 21 16 12 6 11 8 6 8 15 12 11 13 11 11 17 13 7 4 -4 14 14 20 20 17 15 13 10 14 13 14 18 15 11 6 14 8 2 -0 8 17 9 7 12 17 12 9 7 8 10
21 19 21 21 23 24 27 19 13 13 14 15 16 16 12 13 15 14 13 16 21 17 18 21 15 13 12 11 9 13 12 13 11 15 11 10 11 6 3 -1 -2 12 18 14 11 11 9 11 11 8 8 11 14 14
22 20 20 19 18 21 26 29 25 17 16 16 17 15 15 14 17 14 19 15 12 12 13 11 10 5 15 15 13 13 12 11 12 13 17 14 10 6 16 21 18 12 9 12 17 15 15 16 11 9 10 13 9 7
20 19 17 13 14 21 28 26 27 21 16 17 13 14 17 17 15 10 11 12 10 11 2 11 11 9 7 7 11 14 14 18 17 17 16 14 11 5 9 13 10 8 5 17 10 13 17 13 16 16 11 9 8 7
36 31 27 27 27 31 30 26 25 21 18 16 16 11 10 11 8 8 14 16 3 10 10 17 20 20 24 22 21 20 17 14 11 8 8 8 9 9 12 7 8 17 19 14 14 18 14 12 14 15 11 9 8 6
12 13 13 14 17 20 16 14 15 18 18 17 14 7 9 11 13 6 7 7 11 27 11 10 14 13 12 14 12 6 4 9 13 11 14 14 7 8 14 21 23 18 15 15 11 17 16 13 9 9 7 6 5 4
7 16 19 17 12 10 11 8 12 14 19 14 17 22 20 26 10 13 24 21 11 7 10 4 8 6 8 6 9 13 11 10 10 12 12 14 22 20 13 20 20 19 16 16 12 11 11 8 6 5 4 4 5 7
12 11 3 24 17 21 18 25 22 21 30 9 -6 18 14 11 1 -2 6 9 13 11 6 10 4 6 10 8 9 13 17 13 17 18 18 15 14 16 21 18 15 14 13 13 10 7 5 4 4 5 6 8 12 14
5 -10 -8 1 10 13 8 8 9 -13 4 16 3 9 12 6 16 12 6 7 4 2 -0 6 5 8 10 9 12 14 12 14 13 17 20 17 17 14 14 12 11 9 6 6 5 4 4 5 7 11 13 12 14 16
19 20 16 20 22 19 10 6 5 14 19 12 10 16 13 11 10 11 13 10 11 15 16 16 2 15 16 15 20 23 20 14 14 14 12 12 14 11 10 8 6 6 5 4 4 8 10 12 12 13 14 17 21 30
4 -0 13 16 14 18 20 19 15 14 17 20 12 14 10 14 18 17 19 20 21 25 28 30 29 25 26 17 15 15 13 11 11 8 9 7 8 6 5 5 4 5 6 9 12 11 11 13 14 17 21 33 26 12
-1 7 10 8 5 4 5 8 11 10 17 20 20 17 16 18 18 17 19 16 16 15 16 14 12 12 12 10 9 9 8 8 8 7 6 6 5 4 6 8 10 12 11 10 11 14 17 20 20 22 34 20 3 5
7 9 11 9 6 5 6 10 9 13 10 9 12 15 12 8 11 9 8 9 8 7 7 8 9 9 9 9 9 7 7 6 5 5 8 7 7 10 11 10 10 11 14 17 18 17 19 22 25 31 14 4 6 9
12 10 9 14 13 11 10 11 13 16 16 15 14 11 8 8 10 9 9 7 6 7 7 7 7 6 7 8 7 8 9 8 10 9 8 9 8 11 11 12 15 17 19 16 16 16 20 28 26 4 5 5 8 17
11 17 17 14 16 18 15 10 8 8 9 10 10 9 11 9 9 8 8 10 11 11 12 12 13 11 10 11 9 9 8 7 10 9 8 12 14 15 14 13 13 16 15 16 13 24 29 20 2 2 11 6 12 12
12 8 8 7 6 4 5 6 7 7 8 10 10 11 10 11 10 10 10 10 10 9 10 10 8 9 8 9 10 8 10 11 9 13 15 12 12 13 12 16 21 18 20 13 21 29 13 3 3 7 9 21 14 9
9 6 4 3 5 5 6 7 7 9 9 9 8 8 7 7 8 9 10 10 11 11 11 13 14 10 13 11 14 12 11 11 14 13 14 15 15 14 20 23 17 20 12 24 22 9 4 4 10 18 14 10 14 6
6 5 6 6 7 6 6 7 8 7 8 7 10 10 11 12 13 13 13 13 16 14 14 13 12 13 12 13 14 13 15 16 17 19 20 18 17 20 26 16 17 12 27 18 8 1 10 13 18 9 10 11 2 28
6 5 5 5 5 7 7 9 8 9 10 11 11 12 12 11 13 13 14 14 14 14 15 16 17 19 18 17 13 12 12 13 14 15 17 16 17 15 21 16 15 28 16 5 5 11 12 19 4 12 8 12 29 28
7 9 8 8 8 8 9 11 11 12 14 12 15 17 16 17 17 17 17 17 19 21 19 13 9 8 10 13 15 18 19 17 16 16 15 17 12 27 16 23 27 12 4 6 11 14 13 8 14 6 18 28 30 30
8 6 9 9 12 15 15 15 17 16 18 21 22 22 19 20 19 21 21 15 12 9 7 11 17 19 18 18 22 25 26 33 37 31 27 14 21 20 29 25 7 4 7 14 19 7 12 11 11 26 29 30 31 31
8 12 14 17 20 21 21 24 22 22 26 21 21 20 18 18 14 8 9 8 8 13 19 19 17 16 15 17 23 24 28 35 37 24 19 18 29 26 15 8 3 6 16 18 7 9 7 24 34 29 27 28 26 25
18 21 24 24 25 24 16 22 17 13 12 10 10 9 9 8 7 9 11 11 20 19 16 12 12 14 21 16 18 22 25 28 25 20 23 29 19 9 9 5 6 24 18 7 10 7 23 27 26 25 23 19 14 11
27 23 23 21 20 13 15 12 13 13 12 11 10 10 10 11 12 14 17 22 13 9 11 14 13 11 14 18 19 20 23 22 20 18 17 9 8 9 8 14 25 16 5 10 15 0 22 27 24 20 17 14 10 8
24 19 15 15 13 11 14 16 22 27 25 21 18 15 13 14 16 21 14 10 3 15 13 17 18 17 13 18 18 18 18 16 12 11 15 12 12 10 20 18 16 6 15 20 8 2 35 21 20 17 16 14 9 6
15 18 8 3 4 7 12 17 22 24 27 27 27 25 21 20 22 9 9 8 15 12 14 13 13 17 16 19 18 14 14 14 12 11 12 12 17 22 16 13 13 18 23 36 23 20 28 19 16 17 17 13 10 -7
14 7 6 10 4 5 13 12 17 21 22 25 26 22 20 17 5 6 9 11 13 14 14 16 17 17 16 15 16 16 15 15 16 16 20 20 16 17 12 13 21 6 8 6 8 20 33 17 15 17 14 13 -3 -4
5 8 8 10 11 3 10 12 16 22 22 25 17 23 10 7 7 10 11 14 14 14 17 17 15 16 14 15 17 17 16 16 16 17 15 13 19 13 10 23 10 6 -2 8 20 28 20 17 16 15 12 15 23 -14
10 7 5 9 12 9 7 12 15 17 15 20 25 11 7 6 10 11 12 14 15 16 15 13 16 15 18 18 16 15 15 14 13 14 16 16 10 11 20 16 -1 2 8 13 28 31 21 5 9 13 26 9 18 4
6 6 7 9 16 10 10 8 11 14 18 27 19 8 5 7 12 12 13 14 16 16 14 15 15 17 14 13 15 16 17 18 18 18 17 17 16 20 12 14 5 7 16 19 33 27 6 12 21 10 -5 13 14 17
3 4 9 17 13 8 6 10 10 10 19 33 15 7 2 7 9 12 13 15 16 16 14 15 15 16 12 12 10 12 17 21 21 20 19 22 22 10 5 5 4 21 21 6 40 -8 5 16 16 2 7 17 12 11
5 7 12 5 10 13 13 15 13 8 12 29 25 7 3 3 5 6 13 15 16 17 16 15 14 15 13 13 11 15 19 20 21 14 9 11 19 13 9 -3 27 20 25 29 38 -12 20 18 0 12 10 13 6 6
7 7 4 9 8 15 15 19 16 11 7 15 33 18 4 2 0 2 3 12 17 19 16 16 15 15 12 12 15 18 21 20 13 9 10 11 6 8 15 24 23 11 3 14 -9 -5 12 7 13 12 14 7 9 7
Height
5417 5424 5433 5441 5447 5455 5462 5470 5477 5486 5494 5500 5506 5511 5515 5519 5524 5523 5533 5537 5536 5536 5541 5546 5549 5550 5552 5551 5549 5553 5550 5551 5550 5548 5547 5546 5546 5545 5547 5548 5547 5547 5545 5544 5542 5539 5538 5538 5537 5539 5539 5538 5539 5539
5403 5410 5418 5424 5430 5437 5444 5452 5461 5470 5479 5486 5493 5498 5502 5506 5510 5513 5518 5524 5524 5522 5527 5531 5532 5535 5536 5536 5535 5536 5536 5537 5534 5534 5533 5533 5534 5533 5534 5533 5534 5533 5532 5531 5530 5528 5527 5526 5526 5526 5527 5528 5529 5530
5391 5398 5405 5411 5417 5423 5430 5439 5449 5457 5466 5474 5479 5485 5491 5496 5500 5503 5507 5511 5512 5511 5513 5517 5520 5521 5521 5522 5522 5521 5521 5521 5521 5520 5520 5519 5519 5521 5520 5521 5519 5520 5519 5517 5515 5515 5515 5514 5515 5516 5517 5518 5518 5519
5383 5389 5395 5401 5408 5414 5420 5427 5437 5446 5454 5461 5467 5474 5479 5485 5488 5491 5494 5499 5499 5501 5501 5505 5507 5507 5508 5508 5507 5507 5506 5506 5506 5506 5506 5506 5505 5507 5506 5506 5507 5506 5506 5504 5503 5503 5503 5503 5504 5505 5505 5506 5507 5508
5378 5383 5390 5396 5401 5407 5413 5421 5429 5438 5446 5451 5456 5463 5470 5474 5477 5480 5483 5487 5489 5490 5490 5492 5492 5493 5493 5493 5493 5493 5493 5494 5495 5494 5494 5494 5494 5494 5493 5492 5495 5495 5491 5491 5490 5491 5492 5493 5492 5493 5494 5495 5496 5497
5379 5384 5388 5393 5398 5404 5411 5417 5423 5431 5436 5443 5450 5455 5461 5464 5466 5470 5471 5475 5477 5479 5480 5480 5482 5481 5481 5482 5482 5482 5483 5483 5483 5483 5482 5481 5482 5480 5480 5481 5483 5480 5478 5479 5479 5481 5481 5481 5481 5482 5483 5484 5484 5484
5382 5386 5391 5395 5399 5404 5410 5416 5421 5426 5431 5436 5442 5448 5452 5455 5458 5460 5462 5466 5467 5469 5470 5470 5470 5472 5472 5473 5473 5472 5471 5471 5470 5469 5469 5470 5468 5467 5468 5470 5469 5468 5468 5469 5470 5470 5470 5470 5470 5470 5471 5470 5469 5468
5383 5389 5393 5396 5401 5405 5410 5414 5418 5423 5427 5431 5436 5441 5444 5448 5451 5452 5454 5456 5457 5459 5460 5460 5461 5463 5462 5461 5461 5460 5459 5458 5457 5457 5458 5456 5456 5456 5457 5459 5458 5458 5459 5460 5459 5459 5459 5459 5458 5457 5456 5455 5453 5450
5385 5389 5394 5400 5403 5407 5411 5415 5418 5422 5426 5429 5432 5435 5438 5441 5443 5444 5445 5447 5448 5450 5449 5450 5451 5451 5450 5449 5448 5448 5447 5446 5447 5447 5447 5447 5448 5447 5449 5449 5449 5449 5449 5450 5449 5449 5448 5447 5444 5442 5440 5438 5436 5433
5387 5391 5395 5399 5402 5405 5409 5412 5416 5418 5421 5424 5427 5429 5430 5432 5434 5435 5435 5436 5437 5437 5438 5439 5440 5439 5440 5439 5437 5438 5437 5437 5437 5439 5437 5439 5441 5438 5439 5439 5440 5440 5440 5439 5437 5435 5433 5432 5429 5426 5424 5421 5420 5418
5390 5394 5396 5398 5401 5404 5407 5409 5412 5413 5415 5417 5419 5421 5423 5424 5425 5425 5426 5427 5428 5428 5429 5429 5429 5429 5429 5430 5429 5429 5429 5429 5429 5432 5430 5431 5433 5430 5429 5429 5429 5428 5427 5426 5424 5421 5418 5416 5413 5411 5409 5407 5407 5408
5393 5395 5397 5399 5401 5403 5405 5407 5408 5409 5410 5412 5413 5415 5416 5417 5418 5419 5419 5420 5420 5421 5422 5421 5422 5422 5422 5422 5422 5422 5421 5421 5422 5423 5422 5423 5423 5420 5419 5419 5417 5416 5414 5411 5410 5407 5404 5401 5399 5397 5397 5398 5398 5399
5396 5397 5399 5400 5402 5403 5404 5404 5405 5406 5407 5408 5410 5411 5413 5414 5414 5415 5415 5415 5415 5415 5415 5416 5416 5416 5416 5416 5415 5414 5413 5413 5412 5412 5412 5412 5410 5410 5408 5406 5404 5402 5400 5398 5394 5392 5390 5388 5386 5386 5389 5389 5390 5389
5398 5399 5400 5401 5402 5403 5403 5404 5405 5406 5407 5407 5408 5409 5410 5410 5410 5410 5410 5410 5410 5409 5409 5409 5409 5409 5407 5407 5406 5405 5404 5402 5401 5402 5401 5400 5399 5397 5395 5393 5391 5389 5387 5385 5382 5380 5379 5378 5378 5379 5380 5380 5379 5378
5398 5399 5400 5401 5402 5403 5403 5404 5404 5405 5405 5406 5406 5405 5405 5405 5404 5404 5403 5403 5403 5402 5401 5401 5400 5400 5398 5397 5396 5395 5393 5391 5391 5390 5389 5388 5386 5384 5382 5381 5379 5378 5376 5373 5372 5371 5370 5371 5372 5373 5371 5369 5367 5366
5398 5399 5400 5400 5400 5400 5400 5400 5400 5400 5399 5400 5399 5399 5398 5398 5397 5396 5395 5395 5394 5393 5392 5391 5390 5389 5388 5386 5385 5383 5381 5380 5378 5377 5376 5374 5372 5371 5370 5369 5368 5367 5366 5365 5363 5363 5365 5365 5365 5364 5362 5359 5357 5355
5399 5397 5395 5395 5396 5397 5396 5396 5395 5394 5394 5393 5392 5392 5391 5390 5389 5387 5387 5386 5384 5383 5382 5380 5379 5377 5376 5373 5373 5370 5369 5367 5365 5364 5362 5360 5359 5358 5358 5358 5358 5357 5357 5357 5357 5358 5359 5359 5358 5356 5353 5350 5347 5343
5396 5396 5396 5395 5394 5393 5392 5391 5390 5388 5387 5386 5385 5383 5382 5380 5379 5378 5377 5375 5374 5372 5371 5369 5367 5366 5363 5361 5360 5358 5355 5354 5352 5351 5350 5348 5347 5348 5349 5350 5349 5350 5350 5352 5353 5354 5354 5353 5351 5348 5345 5341 5337 5331
5396 5395 5393 5392 5390 5388 5386 5385 5383 5381 5379 5378 5376 5374 5372 5371 5369 5367 5366 5365 5364 5362 5360 5359 5356 5355 5353 5350 5347 5345 5343 5341 5341 5340 5340 5338 5339 5340 5341 5342 5343 5344 5346 5348 5349 5349 5348 5347 5345 5342 5339 5334 5327 5322
5392 5390 5388 5385 5383 5381 5379 5377 5375 5373 5370 5369 5366 5364 5363 5361 5360 5359 5358 5356 5355 5353 5352 5350 5348 5345 5343 5339 5336 5334 5330 5328 5329 5330 5330 5330 5332 5333 5335 5336 5338 5341 5344 5345 5346 5345 5344 5343 5341 5338 5333 5328 5323 5319
5386 5383 5381 5378 5375 5373 5370 5367 5364 5363 5360 5359 5357 5356 5355 5353 5352 5351 5351 5350 5349 5348 5346 5343 5340 5337 5333 5330 5326 5323 5319 5316 5316 5319 5322 5324 5326 5328 5330 5333 5337 5340 5341 5342 5343 5343 5342 5340 5337 5334 5332 5329 5326 5322
5378 5374 5371 5367 5365 5362 5360 5357 5356 5354 5353 5351 5350 5349 5349 5348 5348 5347 5346 5345 5344 5341 5339 5336 5334 5331 5328 5324 5320 5316 5313 5310 5310 5314 5317 5320 5323 5326 5330 5333 5336 5338 5339 5341 5341 5341 5340 5337 5335 5335 5334 5334 5334 5333
5368 5365 5362 5359 5357 5354 5354 5352 5351 5349 5348 5347 5346 5346 5345 5345 5344 5343 5342 5340 5338 5336 5334 5332 5330 5327 5324 5321 5317 5314 5312 5311 5311 5313 5316 5319 5323 5327 5331 5333 5335 5337 5338 5340 5340 5340 5339 5338 5338 5339 5341 5343 5344 5346
5359 5357 5355 5353 5352 5351 5350 5347 5346 5344 5342 5341 5341 5340 5340 5340 5339 5339 5338 5336 5335 5334 5332 5330 5327 5325 5322 5319 5317 5315 5314 5313 5314 5316 5319 5323 5326 5328 5331 5333 5335 5336 5338 5340 5341 5341 5341 5341 5343 5346 5349 5352 5354 5357
5355 5353 5353 5351 5350 5349 5347 5343 5340 5338 5335 5334 5334 5334 5335 5335 5335 5335 5335 5335 5333 5332 5329 5327 5325 5323 5321 5318 5317 5317 5316 5317 5319 5320 5323 5325 5327 5329 5331 5333 5335 5337 5339 5340 5342 5343 5344 5346 5349 5353 5357 5360 5363 5367
5352 5352 5352 5351 5349 5347 5344 5340 5337 5333 5331 5329 5329 5330 5331 5332 5333 5334 5334 5333 5331 5329 5327 5325 5323 5322 5320 5319 5319 5319 5319 5320 5321 5323 5325 5326 5328 5330 5332 5335 5337 5339 5340 5342 5345 5346 5348 5351 5354 5359 5363 5368 5372 5375
5351 5351 5351 5350 5348 5346 5343 5339 5336 5333 5330 5328 5328 5328 5330 5332 5333 5334 5333 5332 5330 5328 5327 5325 5324 5323 5322 5321 5321 5321 5321 5322 5323 5324 5326 5328 5330 5332 5335 5337 5340 5343 5345 5347 5349 5351 5353 5356 5360 5364 5369 5374 5379 5383
5351 5351 5350 5349 5347 5345 5343 5340 5337 5334 5331 5330 5330 5330 5332 5333 5334 5334 5333 5331 5330 5329 5327 5326 5325 5324 5323 5323 5323 5323 5323 5324 5325 5327 5328 5331 5333 5336 5338 5341 5344 5347 5349 5351 5353 5354 5358 5362 5366 5371 5375 5378 5384 5389
5350 5350 5350 5348 5347 5345 5343 5341 5338 5336 5334 5333 5333 5334 5335 5335 5335 5334 5333 5332 5330 5329 5328 5327 5327 5326 5326 5325 5325 5325 5326 5327 5328 5330 5331 5334 5336 5339 5342 5345 5348 5351 5353 5355 5357 5360 5364 5367 5371 5375 5380 5385 5389 5394
5350 5350 5349 5348 5347 5345 5344 5342 5340 5337 5336 5335 5335 5336 5336 5336 5336 5335 5334 5333 5332 5331 5330 5329 5329 5328 5328 5327 5328 5328 5328 5329 5330 5332 5334 5337 5340 5342 5345 5348 5351 5354 5356 5358 5361 5367 5370 5374 5377 5381 5386 5391 5395 5400
5350 5349 5349 5347 5346 5345 5344 5342 5340 5339 5337 5336 5336 5337 5338 5338 5337 5336 5335 5334 5333 5332 5332 5331 5331 5331 5330 5330 5330 5331 5331 5332 5333 5335 5337 5340 5343 5347 5349 5352 5355 5357 5359 5362 5365 5372 5376 5379 5383 5388 5392 5396 5400 5404
5349 5348 5348 5347 5346 5344 5343 5341 5340 5339 5338 5337 5337 5338 5339 5339 5339 5339 5337 5336 5335 5334 5334 5333 5333 5333 5333 5334 5334 5335 5335 5336 5338 5340 5342 5345 5348 5352 5354 5357 5358 5360 5363 5366 5370 5377 5380 5383 5387 5392 5396 5400 5404 5408
5347 5347 5346 5345 5344 5342 5341 5340 5339 5338 5338 5337 5336 5337 5338 5340 5340 5340 5340 5339 5338 5336 5336 5335 5336 5336 5336 5336 5337 5339 5340 5341 5343 5345 5347 5349 5352 5355 5357 5360 5362 5366 5369 5373 5376 5380 5384 5387 5391 5395 5399 5402 5406 5410